Вернуться в каталог

STARLINK-35280

АктивенСвязьVLEO
NORAD 66025·PAYLOAD·🇺🇸 United States

Запущен Oct 16, 2025 с Cape Canaveral Space Force Station

Loading…

Ближайшие Пролёты (ближайшие 24 часа)

TLE

СвежийSource: CelesTrak SupGP

Эпоха: Sep 14, 2026, 21:28 UTC

1 66025C 25232W   26257.89493056  .00017724  00000+0  52379-3 0  2575
2 66025  53.1594 304.0553 0001182  88.6775  68.1260 15.34373422    19

Отслеживайте STARLINK-35280 в реальном времени с AllMySat

Download on the App Store